Home > Weather > Huddersfield > Past weeks

Flag for United Kingdom Past Weather in Huddersfield, England, United Kingdom — Yesterday and Last 2 Weeks

Now
48 °F

Fog.


Feels Like: 46 °F
Forecast: 41 / 64 °F
Wind: 6 mph from East

Location: Leeds And Bradford

Current Time: May 27, 2016 at 5:43:07 AM

Latest Report: May 27, 2016 at 5:20 AM


Visibility: 0 mi

Pressure: 30.07 "Hg

Humidity: 100%

Dew Point: 48 °F

Location of HuddersfieldLocation

Past Weather in Huddersfield — Graph

°F

Huddersfield Temperature Yesterday

Maximum temperature yesterday: 54 °F (at 1:50 PM)
Minimum temperature yesterday: 46 °F (at 12:20 AM)
Average temperature yesterday: 50 °F

High & Low Weather Summary for the Past Weeks

 TemperatureHumidityPressure
High63 °F (May 17, 3:50 PM)100% (May 12, 4:20 AM)30.24 "Hg (May 12, 4:20 AM)
Low37 °F (May 14, 1:50 AM)49% (May 17, 5:20 PM)29.56 "Hg (May 18, 6:20 AM)
Average50 °F86%29.93 "Hg
* Reported May 12 4:20 AM — May 27 4:20 AM, Huddersfield, Weather by CustomWeather, © 2016

Note: Actual official high and low records may vary slightly from our data, if they occured in-between our weather recording intervals... More about our weather records

Advertising

Huddersfield Weather History for the Previous 24 Hours

Scroll right to see more
 ConditionsComfort  
Time TempWeatherWind HumidityBarometerVisibility
4:20 AM
Fri, May 27
48 °FFog.5 mph100%30.04 "Hg1 mi
3:50 AM48 °FFog.6 mph100%30.07 "Hg1 mi
3:20 AM48 °FFog.6 mph100%30.07 "Hg1 mi
2:50 AM48 °FFog.6 mph100%30.07 "Hg1 mi
2:20 AM48 °FFog.7 mph100%30.07 "Hg1 mi
1:50 AM48 °FFog.6 mph100%30.07 "Hg1 mi
1:20 AM50 °FFog.7 mph100%30.04 "Hg1 mi
12:50 AM50 °FFog.5 mph100%30.04 "Hg1 mi
12:20 AM50 °FFog.3 mph100%30.04 "Hg1 mi
11:50 PM
Thu, May 26
52 °FFog.3 mph100%30.04 "Hg1 mi
11:20 PM52 °FFog.2 mph100%30.04 "Hg1 mi
10:50 PM52 °FFog.5 mph100%30.04 "Hg1 mi
10:20 PM52 °FFog.3 mph100%30.04 "Hg1 mi
9:50 PM52 °FFog.2 mph100%30.04 "Hg1 mi
9:20 PM52 °FFog.3 mph100%30.04 "Hg2 mi
8:50 PM52 °FScattered clouds.3 mph100%30.04 "Hg4 mi
8:20 PM54 °FPartly sunny.1 mph94%30.01 "HgN/A
7:50 PM54 °FScattered clouds.2 mph94%30.01 "Hg6 mi
7:20 PM54 °FScattered clouds.1 mph94%30.01 "Hg6 mi
6:50 PM54 °FScattered clouds.3 mph94%30.01 "Hg6 mi
6:20 PM54 °FScattered clouds.5 mph94%30.01 "Hg6 mi
5:50 PM54 °FScattered clouds.5 mph94%30.01 "Hg6 mi
5:20 PM54 °FBroken clouds.3 mph100%30.01 "Hg6 mi
4:50 PM54 °FLight rain. Broken clouds.3 mph94%30.01 "Hg4 mi
4:20 PM54 °FBroken clouds.3 mph100%30.01 "Hg4 mi
3:50 PM54 °FBroken clouds.3 mph94%30.01 "Hg4 mi
3:20 PM52 °FBroken clouds.5 mph100%30.01 "Hg4 mi
2:50 PM54 °FBroken clouds.5 mph94%30.01 "Hg4 mi
2:20 PM54 °FFog.5 mph100%30.01 "Hg2 mi
1:50 PM54 °FBroken clouds.6 mph100%29.98 "Hg4 mi
1:20 PM52 °FBroken clouds.6 mph100%29.98 "Hg3 mi
12:50 PM52 °FDrizzle. Fog.5 mph100%29.98 "Hg3 mi
12:20 PM52 °FDrizzle. Fog.7 mph100%29.98 "Hg1 mi
11:50 AM52 °FFog.5 mph100%29.98 "Hg2 mi
11:20 AM48 °FFog.5 mph100%29.98 "Hg2 mi
10:50 AM48 °FFog.6 mph100%29.98 "Hg2 mi
10:20 AM48 °FDrizzle. Fog.7 mph100%29.98 "Hg1 mi
9:50 AM48 °FDrizzle. Fog.8 mph100%29.98 "Hg1 mi
9:20 AM48 °FDrizzle. Fog.7 mph100%29.98 "Hg1 mi
8:50 AM48 °FDrizzle. Fog.8 mph100%29.98 "Hg1 mi
8:20 AM48 °FDrizzle. Fog.8 mph100%29.98 "Hg1 mi
7:50 AM48 °FFog.8 mph100%29.98 "Hg1 mi
7:20 AM48 °FDrizzle. Fog.8 mph100%29.98 "Hg1 mi
6:50 AM48 °FDrizzle. Fog.9 mph100%29.95 "Hg1 mi
6:20 AM48 °FLight rain. Fog.9 mph100%29.95 "Hg1 mi
5:50 AM48 °FLight rain. Fog.7 mph100%29.95 "Hg1 mi
5:20 AM46 °FFog.9 mph100%29.95 "Hg1 mi
Weather by CustomWeather, © 2016

See weather overviewHow to use our weather pages